Regional Weather Roundup
Issued by NWS

Home | Current Version | Previous Version | Graphics & Text | Print | Product List | Glossary Off
Versions: 1 2 3 4 5 6 7 8 9 10 11 12 13 14 15 16 17 18 19 20 21 22 23 24 25 26 27 28 29 30 31 32 33 34 35 36 37 38 39 40 41 42 43 44 45 46 47 48 49 50

000
ASUS43 KDMX 262306
RWRIA

WEATHER ROUNDUP FOR IOWA
NATIONAL WEATHER SERVICE DES MOINES IA
600 PM CDT SAT MAY 26 2018

NOTE: "FAIR" INDICATES FEW OR NO CLOUDS BELOW 12,000 FEET WITH NO
SIGNIFICANT WEATHER AND/OR OBSTRUCTIONS TO VISIBILITY.

* - THESE STATIONS ARE NOT NWS STATIONS...THUS NOT UNDER NWS
QUALITY CONTROL.  THEY ALSO DO NOT REPORT WEATHER SUCH
AS PRECIPITATION OR FOG.

IAZ001>003-012>014-020>022-031>034-043>046-270000-
   NORTHWEST IOWA

CITY           SKY/WX    TMP DP  RH WIND       PRES   REMARKS
CARROLL *      SUNNY     97  45  16 N7G18     29.73F HX  93
CHEROKEE *     SUNNY     92  56  30 NW5       29.74S HX  90
DENISON *      SUNNY     95  50  21 N6        29.75F HX  92
LE MARS *      SUNNY     97  50  20 CALM      29.73F HX  94
ORANGE CITY *  SUNNY     93  52  24 N7        29.75F HX  90
SHELDON *      SUNNY     95  46  18 W12       29.73F HX  91
SIOUX CITY     SUNNY     94  57  28 NE7       29.72F HX  92
SPENCER        SUNNY     95  52  23 N9        29.73F HX  92
STORM LAKE *   SUNNY     93  45  18 NW9G16    29.75F HX  89
$$

IAZ055>058-069>071-079>083-090>094-270000-
   SOUTHWEST IOWA

CITY           SKY/WX    TMP DP  RH WIND       PRES   REMARKS
ATLANTIC *     SUNNY     97  52  21 N10       29.73F HX  94
AUDUBON *      SUNNY     95  41  15 NW7       29.75F HX  91
CLARINDA *     SUNNY     99  54  22 S3        29.74S HX  96
COUNCIL BLFS * SUNNY     95  55  26 NW6       29.74F HX  93
CRESTON *      SUNNY     97  50  20 CALM      29.76S HX  94
HARLAN  *      SUNNY     95  50  21 N8        29.77F HX  92
LAMONI         SUNNY     91  68  46 SE5       29.75S HX  95
RED OAK *      SUNNY     99  52  20 W6G14     29.72F HX  96
SHENANDOAH *   SUNNY     99  55  23 NW6       29.72F HX  97
$$

IAZ047>049-059>061-072>074-084-270000-
   CENTRAL IOWA

CITY           SKY/WX    TMP DP  RH WIND       PRES   REMARKS
AMES           SUNNY     91  64  40 SE9       29.71F HX  92
ANKENY *       SUNNY     95  63  34 VRB3      29.72F HX  96
BOONE *        SUNNY     95  50  21 CALM      29.72S HX  92
CHARITON *     SUNNY     93  59  31 W5        29.75R HX  92
DES MOINES     MOSUNNY   94  62  34 S8        29.71S HX  94
GRINNELL*      SUNNY     88  63  43 SE12      29.75F HX  89
KNOXVILLE *    SUNNY     93  59  31 SE3       29.72F HX  92
MARSHALLTOWN   MOSUNNY   94  60  32 MISG      29.71F HX  94
NEWTON *       SUNNY     93  59  31 CALM      29.72F HX  92
PELLA *        SUNNY     94  60  32 CALM      29.74S HX  94
PERRY *        FAIR      94  32  11 W6        29.72F HX  88
$$

IAZ004>006-015-016-023>025-035-036-270000-
   NORTH CENTRAL IOWA

CITY           SKY/WX    TMP DP  RH WIND       PRES   REMARKS
ALGONA *       SUNNY     91  55  29 N6        29.74S HX  89
CLARION *      SUNNY     95  46  18 NW14G21   29.73S HX  91
ESTHERVILLE    SUNNY     91  53  27 N8        29.73S HX  88
FORT DODGE *   SUNNY     94  52  24 N8        29.74S HX  91
MASON CITY     SUNNY     91  59  33 SW8       29.74S HX  90
FOREST CITY *  FAIR      90  52  27 W7        29.73F HX  87
WEBSTER CITY * SUNNY     95  45  17 VRB5G12   29.71S HX  91
IOWA FALLS *   FAIR      94  55  26 N5        29.74S HX  92
$$

IAZ007>011-017>019-026>030-037>042-050>054-066-270000-
   NORTHEAST IOWA

CITY           SKY/WX    TMP DP  RH WIND       PRES   REMARKS
CEDAR RAPIDS   FAIR      89  67  47 S7        29.73F HX  92
CHARLES CITY * FAIR      93  57  29 NW7       29.73S HX  92
CLINTON *        N/A     90  62  39 VRB3      29.75S HX  90
DECORAH *      FAIR      88  63  42 S7        29.73S HX  88
DUBUQUE        FAIR      86  66  51 SW6       29.76S HX  88
MONTICELLO *   FAIR      91  63  38 CALM      29.74S HX  92
OELWEIN *      FAIR      90  63  40 E6        29.74F HX  90
WATERLOO       FAIR      87  67  51 SE12      29.71S HX  90
$$

IAZ064-065-067-068-078-270000-
   EAST CENTRAL IOWA

CITY           SKY/WX    TMP DP  RH WIND       PRES   REMARKS
DAVENPORT      FAIR      90  58  33 NW5       29.76R HX  89
IOWA CITY      FAIR      89  66  46 VRB6      29.75S HX  91
MT. PLEASANT * SUNNY     88  63  42 CALM      29.74S HX  88
MUSCATINE *    FAIR      88  68  51 CALM      29.74R HX  91
QUAD CITIES    FAIR      93  61  34 W5        29.73R HX  93
$$

IAZ062-063-075>077-085>089-095>099-270000-
   SOUTHEAST IOWA

CITY           SKY/WX    TMP DP  RH WIND       PRES   REMARKS
BURLINGTON     CLOUDY    85  72  65 S5        29.74R HX  91
FAIRFIELD *    CLOUDY    86  70  58 NE6       29.74S HX  90
FORT MADISON * CLOUDY    88  66  48 S6        29.75R HX  90
KEOKUK *       RAIN      81  66  61 NE8G16    29.75R HX  83
OSKALOOSA *    FAIR      89  64  42 SE10      29.74F HX  90
CENTERVILLE *    N/A     93  64  38 CALM      29.77S HX  95
OTTUMWA        PTSUNNY   88  67  49 N10       29.73S THUNDER HX  91
WASHINGTON *   CLOUDY    86  72  62 CALM      29.75S HX  92
$$

ABBREVIATIONS USED IN REMARKS
   TC - TEMPERATURES IN CELSIUS
  WCI - WIND CHILL INDEX
   HX - HEAT INDEX
  VSB - VISIBILITY
$$





USA.gov is the U.S. government's official web portal to all federal, state and local government web resources and services.